DW3263 Weather Reports


Display with metric or nautical units.
time (UTC)temp
F
wind
direction
speed
MPH
gust
MPH
rain 1hr
in
rain 24hr
in
rain mn
in
humidity
%
barometer
mb
20260506081520 68 180 8.0 17.0 0.00 0.00 0.00 58 1005.4
20260506080521 68 180 6.0 14.0 0.00 0.00 0.00 58 1005.6
20260506073520 68 180 6.0 11.0 0.00 0.00 0.00 56 1005.7
20260506072734 68 203 5.0 10.0 0.00 0.00 0.00 55 1005.9
20260506071520 67 203 5.0 8.0 0.00 0.00 0.00 55 1005.9
20260506070520 68 203 4.0 9.0 0.00 0.00 0.00 54 1005.9
20260506061520 69 203 4.0 9.0 0.00 0.00 0.00 48 1006.6
20260506060732 69 203 4.0 9.0 0.00 0.00 0.00 48 1006.6
20260506050520 69 180 3.0 7.0 0.00 0.00 0.00 45 1007.1
20260506044521 70 203 5.0 9.0 0.00 0.00 0.00 44 1007.1
20260506043520 70 180 6.0 10.0 0.00 0.00 0.00 44 1007.2
20260506042731 70 203 6.0 11.0 0.00 0.00 0.00 45 1007.2
20260506041732 70 203 8.0 15.0 0.00 0.00 0.00 44 1007.1
20260506040733 70 203 7.0 15.0 0.00 0.00 0.00 44 1007.0
20260506035519 70 180 7.0 13.0 0.00 0.00 0.00 43 1007.0
20260506034520 71 203 6.0 12.0 0.00 0.00 0.00 43 1007.1
20260506033519 71 203 5.0 11.0 0.00 0.00 0.00 43 1007.0
20260506032520 70 203 5.0 9.0 0.00 0.00 0.00 44 1007.0
20260506031519 70 180 5.0 10.0 0.00 0.00 0.00 44 1007.0
20260506030519 70 203 5.0 10.0 0.00 0.00 0.00 45 1007.0
20260506025519 69 180 3.0 7.0 0.00 0.00 0.00 47 1006.9
20260506024519 68 203 1.0 3.0 0.00 0.00 0.00 50 1007.0
20260506023520 67 203 1.0 4.0 0.00 0.00 0.00 52 1007.1
20260506022520 67 0.0 0.0 0.00 0.00 0.00 51 1007.0
20260506021519 67 0.0 0.0 0.00 0.00 0.00 51 1007.0
20260506020520 68 0.0 0.0 0.00 0.00 0.00 50 1007.0
20260506015520 68 0.0 0.0 0.00 0.00 0.00 49 1006.9
20260506014520 69 0.0 0.0 0.00 0.00 0.00 48 1006.8
20260506013732 70 0.0 0.0 0.00 0.00 0.00 47 1006.8
20260506013159 71 0.0 2.0 0.00 0.00 0.00 45 1006.7
20260506011520 72 203 1.0 3.0 0.00 0.00 0.00 43 1006.5
20260506010520 73 0.0 2.0 0.00 0.00 0.00 42 1006.4
20260506005520 74 203 1.0 3.0 0.00 0.00 0.00 41 1006.4
20260506004520 74 203 2.0 4.0 0.00 0.00 0.00 40 1006.4
20260506003520 75 203 2.0 3.0 0.00 0.00 0.00 40 1006.2
20260506002520 75 203 2.0 5.0 0.00 0.00 0.00 39 1006.1
20260506001520 76 203 5.0 10.0 0.00 0.00 0.00 38 1006.1
20260506000520 76 203 5.0 12.0 0.00 0.00 0.00 38 1005.8
20260505235519 76 203 4.0 8.0 0.00 0.00 0.00 39 1005.7
20260505234520 76 225 4.0 9.0 0.00 0.00 0.00 38 1005.8
20260505233520 77 180 5.0 7.0 0.00 0.00 0.00 39 1005.8
20260505232520 77 203 6.0 12.0 0.00 0.00 0.00 39 1005.7
20260505231520 77 225 7.0 12.0 0.00 0.00 0.00 39 1005.7
20260505230520 78 180 4.0 14.0 0.00 0.00 0.00 41 1005.5
20260505225520 78 180 6.0 15.0 0.00 0.00 0.00 39 1005.4
20260505224520 79 158 7.0 11.0 0.00 0.00 0.00 39 1005.3
20260505223520 79 203 7.0 15.0 0.00 0.00 0.00 39 1005.3
20260505222520 79 180 7.0 14.0 0.00 0.00 0.00 39 1005.1
20260505221520 79 203 7.0 16.0 0.00 0.00 0.00 38 1005.2
20260505220520 80 180 7.0 12.0 0.00 0.00 0.00 38 1005.3
20260505215519 82 225 5.0 12.0 0.00 0.00 0.00 36 1005.3
20260505214734 81 158 6.0 11.0 0.00 0.00 0.00 40 1005.4
20260505213519 80 158 7.0 15.0 0.00 0.00 0.00 38 1005.2
20260505212520 80 180 8.0 20.0 0.00 0.00 0.00 38 1005.2
20260505211520 81 180 6.0 12.0 0.00 0.00 0.00 36 1005.2
20260505210520 82 225 8.0 15.0 0.00 0.00 0.00 34 1005.2
20260505205520 82 203 7.0 17.0 0.00 0.00 0.00 34 1005.2
20260505204520 82 225 7.0 13.0 0.00 0.00 0.00 34 1005.1
20260505203520 82 225 7.0 15.0 0.00 0.00 0.00 35 1005.2
20260505202520 82 180 7.0 15.0 0.00 0.00 0.00 34 1005.3
20260505201520 82 225 7.0 16.0 0.00 0.00 0.00 34 1005.4
20260505200520 82 203 7.0 16.0 0.00 0.00 0.00 34 1005.4
20260505195734 81 203 9.0 18.0 0.00 0.00 0.00 35 1005.6
20260505194520 82 225 9.0 19.0 0.00 0.00 0.00 34 1005.6
20260505193520 82 225 6.0 11.0 0.00 0.00 0.00 37 1005.7
20260505192520 81 203 9.0 17.0 0.00 0.00 0.00 36 1005.7
20260505191520 81 203 9.0 17.0 0.00 0.00 0.00 35 1005.6
20260505190521 81 203 6.0 11.0 0.00 0.00 0.00 37 1005.8
20260505185520 81 203 8.0 15.0 0.00 0.00 0.00 36 1006.0
20260505184520 81 225 8.0 19.0 0.00 0.00 0.00 35 1006.3
20260505183520 81 203 8.0 19.0 0.00 0.00 0.00 36 1006.3
20260505182520 81 203 9.0 24.0 0.00 0.00 0.00 36 1006.5
20260505181520 80 203 7.0 12.0 0.00 0.00 0.00 38 1006.6
20260505180520 80 203 8.0 19.0 0.00 0.00 0.00 37 1006.8
20260505175520 81 203 7.0 21.0 0.00 0.00 0.00 36 1006.6
20260505174520 80 203 7.0 19.0 0.00 0.00 0.00 38 1006.8
20260505173520 80 248 9.0 24.0 0.00 0.00 0.00 38 1006.7
20260505172520 79 270 9.0 17.0 0.00 0.00 0.00 38 1006.9
20260505171520 79 225 8.0 17.0 0.00 0.00 0.00 39 1007.0
20260505170520 78 203 6.0 12.0 0.00 0.00 0.00 43 1007.0
20260505165520 79 225 7.0 16.0 0.00 0.00 0.00 42 1007.3
20260505164520 78 225 6.0 15.0 0.00 0.00 0.00 47 1007.7
20260505163733 78 225 8.0 14.0 0.00 0.00 0.00 44 1008.0
20260505162520 77 225 7.0 14.0 0.00 0.00 0.00 45 1008.0
20260505161520 77 225 6.0 14.0 0.00 0.00 0.00 46 1008.1
20260505160520 77 225 7.0 16.0 0.00 0.00 0.00 47 1008.2
20260505152520 75 225 7.0 17.0 0.00 0.00 0.00 49 1008.1
20260505151518 75 203 7.0 18.0 0.00 0.00 0.00 49 1008.4
20260505150520 75 225 6.0 13.0 0.00 0.00 0.00 50 1008.2
20260505140520 70 158 3.0 7.0 0.00 0.00 0.00 60 1008.7
20260505124520 65 158 3.0 7.0 0.00 0.00 0.00 62 1008.8
20260505123518 66 158 4.0 8.0 0.00 0.00 0.00 61 1009.0
20260505122520 66 113 1.0 2.0 0.00 0.00 0.00 61 1008.9
20260505121732 66 113 2.0 4.0 0.00 0.00 0.00 61 1008.9
20260505120519 65 113 3.0 5.0 0.00 0.00 0.00 61 1008.8
20260505115520 63 293 2.0 7.0 0.00 0.00 0.00 61 1008.7
20260505114520 62 0.0 2.0 0.00 0.00 0.00 60 1008.7
20260505113518 63 293 1.0 4.0 0.00 0.00 0.00 61 1008.7
20260505112518 63 293 1.0 3.0 0.00 0.00 0.00 61 1008.7
20260505111520 64 293 1.0 2.0 0.00 0.00 0.00 58 1008.5
20260505110729 63 293 1.0 2.0 0.00 0.00 0.00 58 1008.3
20260505101728 56 90 3.0 6.0 0.00 0.00 0.00 23 1008.2
20260505100519 56 90 1.0 3.0 0.00 0.00 0.00 23 1007.8
20260505095520 57 90 1.0 2.0 0.00 0.00 0.00 40 1007.7
20260505094731 59 0.0 2.0 0.00 0.00 0.00 49 1007.8
20260505093519 59 158 1.0 4.0 0.00 0.00 0.00 46 1007.6
20260505092519 58 158 1.0 3.0 0.00 0.00 0.00 44 1007.7
20260505091520 59 158 1.0 3.0 0.00 0.00 0.00 49 1007.8
20260505090730 59 0.0 2.0 0.00 0.00 0.00 49 1007.8
20260505085518 59 180 2.0 4.0 0.00 0.00 0.00 46 1007.9
20260505084518 58 0.0 1.0 0.00 0.00 0.00 46 1007.9
20260505083733 59 0.0 2.0 0.00 0.00 0.00 48 1007.7
20260505082518 59 0.0 2.0 0.00 0.00 0.00 53 1007.6